Regional Weather Roundup
Issued by NWS

Home | Current Version | Previous Version | Text Only | Print | Product List | Glossary On
Versions: 1 2 3 4 5 6 7 8 9 10 11 12 13 14 15 16 17 18 19 20 21 22 23 24 25 26 27 28 29 30 31 32 33 34 35 36 37 38 39 40 41 42 43 44 45 46 47 48 49 50
000
ASUS43 KMPX 012210
RWRMN
WEATHER ROUNDUP FOR MINNESOTA
NATIONAL WEATHER SERVICE TWIN CITIES/CHANHASSEN MN
400 PM CST SUN FEB 01 2015


NOTE: "FAIR" INDICATES FEW OR NO CLOUDS BELOW 12,000 FEET WITH NO
SIGNIFICANT WEATHER AND/OR OBSTRUCTIONS TO VISIBILITY. N/A MEANS
CURRENT SKY AND/OR WEATHER CONDITIONS ARE NOT AVAILABLE.

MNZ060>063-068>070-012300-
   Twin Cities Metro

CITY           SKY/WX    TMP DP  RH WIND       PRES   REMARKS
TWIN CITIES    PTSUNNY   17   2  51 N16       30.21S WCI   2
ST PAUL        MOSUNNY   17   2  51 N17       30.23S WCI   1
CRYSTAL        MOSUNNY   18   2  49 N13       30.21S WCI   5
BLAINE         MOSUNNY   19   5  53 N17       30.21S WCI   4
LAKEVILLE      MOSUNNY   14   3  62 N15       30.19R WCI  -1
EDEN PRAIRIE   MOSUNNY   16   3  56 N15G23    30.20R WCI   1
SOUTH ST PAUL  MOSUNNY   17   3  54 N10G20    30.21R WCI   5
LAKE ELMO      FAIR      18   5  57 NE15G21   30.21S WCI   3
$$
MNZ001>005-007-008-013>017-022>024-027-028-012300-
   Northwest Minnesota

CITY           SKY/WX    TMP DP  RH WIND       PRES   REMARKS
BEMIDJI        SUNNY      1 -14  50 N9        30.33F WCI -15
HALLOCK        SUNNY     -2 -15  55 W3        30.44F
ROSEAU         SUNNY      0 -15  50 W5        30.39F WCI -10
WARROAD        CLEAR     -2 -15  55 SW6       30.38F WCI -14
THIEF RVR FALL SUNNY     -2 -11  65 CALM      30.39F
CROOKSTON      SUNNY      0 -11  60 N6        30.45F WCI -12
FOSSTON        SUNNY      3 -11  51 N7        30.38F WCI  -9
DETROIT LAKES  SUNNY      5  -8  56 N12       30.35S WCI -11
MOORHEAD       SUNNY      5 -13  43 N15       30.42F WCI -13
PARK RAPIDS    SUNNY      7 -14  37 N12       30.30F WCI  -8
MAHNOMEN       FAIR       2 -11  54 N12       30.37F WCI -15
$$
MNZ006-009>011-018-025>026-012300-
   North Central Minnesota

CITY           SKY/WX    TMP DP  RH WIND       PRES   REMARKS
BAUDETTE       CLEAR     -5 -19  51 NW3       30.36F
FLAG ISLAND    CLEAR     -8 -15  71 S8        30.38R WCI -23
INTL FALLS     CLEAR      0 -15  49 N6        30.34F WCI -12
WASKISH        SUNNY      1 -15  46 CALM      30.35F
BIG FORK       CLEAR      5 -17  36 NW5       30.32F WCI  -4
LONGVILLE      SUNNY      3 -15  43 N5        30.31F WCI  -6
GRAND RAPIDS   SUNNY      5 -13  43 NW13      30.28F WCI -12
CRANE LAKE     CLEAR     -2 -17  50 N5        30.35F WCI -12
ORR            CLEAR      1 -18  39 CALM      30.29F
COOK           CLEAR      3 -17  39 NW6       30.30F WCI  -8
WALKER         FAIR       3 -14  46 N8        30.32F WCI -11
$$
MNZ012-019>021-037-012300-
   Northeast Minnesota

CITY           SKY/WX    TMP DP  RH WIND       PRES   REMARKS
DULUTH         PTCLDY     8 -13  37 N12       30.24S WCI  -7
ELY            CLEAR      1 -17  42 NW6       30.27F WCI -10
HIBBING        CLEAR      5 -15  39 N8        30.29F WCI  -8
EVELETH        CLEAR      5 -15  39 N7        30.29F WCI  -7
DULUTH HARBOR  CLEAR     12  -2  52 CALM      30.32F
TWO HARBORS    CLEAR     12  -9  37 N6        30.25F WCI   3
SILVER BAY     CLEAR     12 -15  29 NW6       30.25F WCI   3
GRAND MARAIS     N/A     10 -13  34 N5        30.31F WCI   2
G MARAIS ARPRT CLEAR      0 -17  46 N7        30.20F WCI -13
$$
MNZ029>031-032-039>041-046>048-054>057-064-012300-
   West Central Minnesota

CITY           SKY/WX    TMP DP  RH WIND       PRES   REMARKS
FERGUS FALLS   SUNNY      7 -11  43 N14G21    30.40R WCI -10
WHEATON        SUNNY      5  -9  51 N16G22    30.40S WCI -14
MORRIS         SUNNY     12  -2  52 NW20      30.31S WCI  -6
ALEXANDRIA     SUNNY     11  -9  40 N14       30.28S WCI  -5
ELBOW LAKE     FAIR       8  -8  47 N13       30.33S WCI  -8
WADENA         SUNNY      9 -11  40 N9        30.30F WCI  -5
GLENWOOD       SUNNY     12  -4  48 N15       30.28S WCI  -4
APPLETON       SUNNY     14   0  52 N20G26    30.33S WCI  -3
BENSON         MOSUNNY   14  -2  48 N14G20    30.31S WCI  -1
ORTONVILLE     SUNNY      9  -6  52 N18G24    30.35S WCI -10
MADISON        SUNNY     14   1  57 N22       30.33S WCI  -4
WILLMAR        FAIR      16   0  48 N16G22    30.28R WCI   0
$$
MNZ033>034-036-042>043-049>051-058-059-012300-
   Central Minnesota

CITY           SKY/WX    TMP DP  RH WIND       PRES   REMARKS
ST CLOUD       SUNNY     13  -9  37 N10       30.26S WCI   0
SAUK CENTRE    FAIR      12 -10  37 N13G18    30.28S WCI  -3
PAYNESVILLE    SUNNY     11  -8  42 NW14      30.27R WCI  -5
AITKIN         SUNNY     10 -15  31 N12G17    30.28S WCI  -4
PINE RIVER     SUNNY      5 -11  47 N9        30.33F WCI  -9
BRAINERD       SUNNY      9 -13  36 N12       30.29S WCI  -6
STAPLES        SUNNY      7 -15  36 N9        30.30F WCI  -7
LONG PRAIRIE   FAIR      10 -13  34 N12G18    30.28S WCI  -4
LITTLE FALLS   SUNNY     10 -15  31 N9G16     30.29S WCI  -2
LITCHFIELD     SUNNY     16   0  48 N15       30.25S WCI   1
BUFFALO        SUNNY     17  -3  42 N15G22    30.24S WCI   2
MAPLE LAKE     FAIR      16   2  53 N16       30.25S WCI   1
$$
MNZ037-044-045-052-053-012300-
   East Central Minnesota

CITY           SKY/WX    TMP DP  RH WIND       PRES   REMARKS
PRINCETON      SUNNY     16  -6  38 N12G17    30.25S WCI   3
MORA           SUNNY     14  -9  34 NE6       30.27S WCI   5
CAMBRIDGE      MOSUNNY   16   1  53 N10G17    30.23S WCI   3
RUSH CITY      MOSUNNY   15  -1  49 NE15      30.25S WCI  -1
MOOSE LAKE     SUNNY     12 -13  31 NE10      30.26S WCI  -1
HINCKLEY       FAIR      14  -6  41 N12G18    30.26S WCI   0
CLOQUET        CLEAR      9 -15  33 N10       30.26S WCI  -6
MCGREGOR       SUNNY     10  -9  40 N14       30.29S WCI  -5
$$
MNZ071>073-080-081-089-090-097-098-012300-
   Southwest Minnesota

CITY           SKY/WX    TMP DP  RH WIND       PRES   REMARKS
MONTEVIDEO     SUNNY     16   1  53 NE20G25   30.31S WCI  -1
GRANITE FALLS  SUNNY     15   4  61 N16       30.30S WCI  -1
CANBY          SUNNY     10   1  67 N18       30.33S WCI  -9
MARSHALL       MOSUNNY   12   0  57 N22       30.28R WCI  -7
REDWOOD FALLS  MOSUNNY   17   2  51 N13G24    30.25S WCI   4
OLIVIA         SUNNY     16   3  57 N17G25    30.26R WCI   0
PIPESTONE      MOSUNNY    9   1  72 N14G25    30.22S WCI  -8
WINDOM         CLOUDY    12   7  79 N22       30.19S WCI  -7
WORTHINGTON    CLOUDY    12   3  67 N20G25    30.20R WCI  -6
JACKSON        CLOUDY    14   9  79 N16G26    30.17R HAZE    WCI  -2
TRACY          PTSUNNY   14   6  68 N20G25    30.24R WCI  -3
SLAYTON        PTSUNNY    9   3  77 N20G26    30.21S HAZE    WCI -11
$$
MNZ065>067-074>077-082>085-091>093-012300-
   South Central Minnesota

CITY           SKY/WX    TMP DP  RH WIND       PRES   REMARKS
MANKATO        MOSUNNY  N/A N/A N/A N18G24    30.18S
NEW ULM        MOSUNNY   16   3  57 N9G21     30.21R WCI   4
ST JAMES       PTSUNNY   16   9  73 N15G23    30.21R WCI   1
FAIRMONT       PTSUNNY   14   3  62 N21G28    30.15S WCI  -4
GLENCOE        MOSUNNY   18   5  58 N12G24    30.22S WCI   5
FARIBAULT      PTSUNNY   16   3  57 N12G21    30.17R WCI   3
OWATONNA       PTSUNNY   16   3  57 N16G26    30.14S WCI   0
WASECA         PTSUNNY   18   7  62 N16       30.17R WCI   3
ALBERT LEA     PTSUNNY   12   3  67 N22       30.11R WCI  -7
$$
MNZ078>079-086>088-094>096-012300-
   Southeast Minnesota

CITY           SKY/WX    TMP DP  RH WIND       PRES   REMARKS
ROCHESTER      CLOUDY    12   2  64 N23G30    30.09R WCI  -7
RED WING       CLOUDY    18   1  49 N9G21     30.18R WCI   6
STANTON        PTSUNNY   17   5  60 N15       30.16S WCI   2
DODGE CENTER   PTSUNNY   14   3  62 N20G26    30.10S WCI  -3
WINONA         CLOUDY    18   5  57 N7G20     30.15R WCI   8
AUSTIN         CLOUDY    12   3  67 N16G29    30.10R WCI  -4
PRESTON        LGT SNOW  11   6  79 N16G23    30.07R WCI  -5
$$
ABBREVIATIONS USED IN REMARKS
   TC - TEMPERATURES IN CELSIUS
  WCI - WIND CHILL INDEX
   HX - HEAT INDEX
  VSB - VISIBILITY
$$


USA.gov is the U.S. government's official web portal to all federal, state and local government web resources and services.